Location: Anuling
(14.1239°N, 120.8922°E)
Time: 04:22:17
(UTC+00:00)

CZ-2D R/B - Pass Details

Date: 14 January 2026
Orbit: 389 x 399 km, 97.4° (Epoch: 11 February)

Event Time Altitude Azimuth Distance (km) Brightness Sun altitude
Rises 10:17:43 0° 182° (S) 2,325 6.8 -7.9°
Reaches altitude 10° 10:19:46 10° 190° (S) 1,468 5.9 -8.3°
Maximum altitude 10:22:43 37° 260° (W) 651 4.5 -9.0°
Drops below altitude 10° 10:25:40 10° 330° (NNW) 1,474 5.7 -9.7°
Sets 10:27:44 0° 338° (NNW) 2,335 6.6 -10.1°
